| time (UTC) | temp F | wind direction | speed knots | gust knots | rain 1hr in | rain 24hr in | rain mn in | humidity % | barometer mb |
| 20260508075124 | 42 | 240 | 1.7 | 1.7 | 0.00 | 0.00 | 0.00 | 78 | 1020.2 |
| 20260508074622 | 42 | 257 | 0.9 | 1.7 | 0.00 | 0.00 | 0.00 | 77 | 1020.1 |
| 20260508074118 | 42 | 220 | 0.0 | 0.0 | 0.00 | 0.00 | 0.00 | 75 | 1020.3 |
| 20260508073616 | 42 | 240 | 1.7 | 1.7 | 0.00 | 0.00 | 0.00 | 76 | 1020.8 |
| 20260508073114 | 42 | 225 | 0.9 | 0.9 | 0.00 | 0.00 | 0.00 | 77 | 1020.6 |
| 20260508072608 | 43 | 225 | 0.9 | 0.9 | 0.00 | 0.00 | 0.00 | 74 | 1020.7 |
| 20260508072106 | 44 | 230 | 0.9 | 0.9 | 0.00 | 0.00 | 0.00 | 72 | 1020.6 |
| 20260508071604 | 45 | 282 | 1.7 | 1.7 | 0.00 | 0.00 | 0.00 | 72 | 1020.4 |
| 20260508071102 | 45 | 242 | 0.9 | 0.9 | 0.00 | 0.00 | 0.00 | 72 | 1020.6 |
| 20260508070559 | 46 | 220 | 0.0 | 0.0 | 0.00 | 0.00 | 0.00 | 71 | 1020.7 |
| 20260508070058 | 46 | 229 | 0.9 | 0.9 | 0.00 | 0.00 | 0.00 | 71 | 1020.4 |
| 20260508065555 | 46 | 227 | 0.0 | 0.9 | 0.00 | 0.00 | 0.00 | 72 | 1020.4 |
| 20260508065053 | 47 | 192 | 0.9 | 0.9 | 0.00 | 0.00 | 0.00 | 71 | 1020.7 |
| 20260508064550 | 48 | 204 | 0.0 | 0.0 | 0.00 | 0.00 | 0.00 | 69 | 1020.7 |
| 20260508064048 | 48 | 127 | 2.6 | 2.6 | 0.00 | 0.00 | 0.00 | 70 | 1020.7 |
| 20260508063545 | 47 | 189 | 0.9 | 0.9 | 0.00 | 0.00 | 0.00 | 72 | 1020.8 |
| 20260508063043 | 47 | 148 | 4.3 | 4.3 | 0.00 | 0.00 | 0.00 | 71 | 1020.4 |
| 20260508062540 | 47 | 235 | 1.7 | 1.7 | 0.00 | 0.00 | 0.00 | 70 | 1020.8 |
| 20260508062036 | 46 | 228 | 1.7 | 1.7 | 0.00 | 0.00 | 0.00 | 78 | 1020.8 |
| 20260508061534 | 46 | 203 | 0.9 | 0.9 | 0.00 | 0.00 | 0.00 | 79 | 1020.6 |
| 20260508061031 | 46 | 196 | 0.9 | 0.9 | 0.00 | 0.00 | 0.00 | 79 | 1020.8 |
| 20260508060528 | 46 | 201 | 0.0 | 0.0 | 0.00 | 0.00 | 0.00 | 79 | 1020.7 |
| 20260508060026 | 46 | 184 | 0.9 | 0.9 | 0.00 | 0.00 | 0.00 | 78 | 1020.7 |
| 20260508055521 | 45 | 209 | 0.0 | 0.0 | 0.00 | 0.00 | 0.00 | 77 | 1020.8 |
| 20260508055018 | 45 | 220 | 0.9 | 1.7 | 0.00 | 0.00 | 0.00 | 76 | 1020.8 |
| 20260508054514 | 45 | 245 | 0.9 | 0.9 | 0.00 | 0.00 | 0.00 | 79 | 1020.6 |
| 20260508054012 | 46 | 235 | 0.9 | 0.9 | 0.00 | 0.00 | 0.00 | 78 | 1020.7 |
| 20260508053508 | 46 | 250 | 0.9 | 0.9 | 0.00 | 0.00 | 0.00 | 77 | 1020.7 |
| 20260508053007 | 46 | 269 | 0.9 | 0.9 | 0.00 | 0.00 | 0.00 | 74 | 1020.9 |
| 20260508052504 | 47 | 292 | 2.6 | 2.6 | 0.00 | 0.00 | 0.00 | 72 | 1020.8 |
| 20260508052000 | 46 | 238 | 0.9 | 0.9 | 0.00 | 0.00 | 0.00 | 74 | 1020.7 |
| 20260508051456 | 46 | 281 | 1.7 | 1.7 | 0.00 | 0.00 | 0.00 | 75 | 1020.6 |
| 20260508050951 | 47 | 217 | 0.9 | 1.7 | 0.00 | 0.00 | 0.00 | 74 | 1020.9 |
| 20260508050448 | 47 | 261 | 3.5 | 4.3 | 0.00 | 0.00 | 0.00 | 73 | 1020.7 |
| 20260508045945 | 47 | 222 | 3.5 | 4.3 | 0.00 | 0.00 | 0.00 | 74 | 1020.9 |
| 20260508045442 | 47 | 197 | 0.9 | 1.7 | 0.00 | 0.00 | 0.00 | 71 | 1020.8 |
| 20260508044940 | 46 | 221 | 0.9 | 1.7 | 0.00 | 0.00 | 0.00 | 80 | 1020.9 |
| 20260508044437 | 46 | 223 | 1.7 | 1.7 | 0.00 | 0.00 | 0.00 | 80 | 1020.8 |
| 20260508043932 | 46 | 228 | 0.9 | 0.9 | 0.00 | 0.00 | 0.00 | 80 | 1021.1 |
| 20260508043430 | 48 | 243 | 0.9 | 1.7 | 0.00 | 0.00 | 0.00 | 78 | 1020.8 |
| 20260508042926 | 48 | 191 | 0.9 | 0.9 | 0.00 | 0.00 | 0.00 | 74 | 1020.8 |
| 20260508042424 | 50 | 238 | 1.7 | 2.6 | 0.00 | 0.00 | 0.00 | 68 | 1020.7 |
| 20260508041920 | 52 | 198 | 1.7 | 2.6 | 0.00 | 0.00 | 0.00 | 59 | 1020.7 |
| 20260508041417 | 52 | 252 | 0.9 | 1.7 | 0.00 | 0.00 | 0.00 | 51 | 1020.8 |
| 20260508040913 | 52 | 297 | 2.6 | 2.6 | 0.00 | 0.00 | 0.00 | 48 | 1020.7 |
| 20260508040411 | 52 | 329 | 0.9 | 1.7 | 0.00 | 0.00 | 0.00 | 48 | 1020.8 |
| 20260508035909 | 53 | 190 | 0.0 | 0.0 | 0.00 | 0.00 | 0.00 | 47 | 1020.6 |
| 20260508035405 | 53 | 265 | 0.9 | 1.7 | 0.00 | 0.00 | 0.00 | 47 | 1020.6 |
| 20260508034902 | 53 | 239 | 0.9 | 0.9 | 0.00 | 0.00 | 0.00 | 47 | 1020.6 |
| 20260508034359 | 53 | 215 | 0.9 | 1.7 | 0.00 | 0.00 | 0.00 | 46 | 1020.4 |
| 20260508033850 | 53 | 349 | 4.3 | 6.1 | 0.00 | 0.00 | 0.00 | 45 | 1020.4 |
| 20260508033349 | 53 | 325 | 1.7 | 1.7 | 0.00 | 0.00 | 0.00 | 46 | 1020.1 |
| 20260508032846 | 53 | 258 | 1.7 | 2.6 | 0.00 | 0.00 | 0.00 | 45 | 1020.1 |
| 20260508032343 | 53 | 208 | 0.9 | 0.9 | 0.00 | 0.00 | 0.00 | 44 | 1020.2 |
| 20260508031839 | 53 | 166 | 0.9 | 0.9 | 0.00 | 0.00 | 0.00 | 45 | 1020.1 |
| 20260508031337 | 54 | 213 | 0.9 | 1.7 | 0.00 | 0.00 | 0.00 | 44 | 1020.2 |
| 20260508030833 | 54 | 320 | 3.5 | 4.3 | 0.00 | 0.00 | 0.00 | 44 | 1019.8 |
| 20260508030330 | 53 | 10 | 0.9 | 1.7 | 0.00 | 0.00 | 0.00 | 45 | 1019.8 |
| 20260508025827 | 53 | 220 | 0.0 | 0.9 | 0.00 | 0.00 | 0.00 | 45 | 1019.8 |
| 20260508025324 | 53 | 303 | 0.9 | 0.9 | 0.00 | 0.00 | 0.00 | 45 | 1020.1 |
| 20260508024821 | 54 | 240 | 0.0 | 0.0 | 0.00 | 0.00 | 0.00 | 45 | 1019.7 |
| 20260508024317 | 54 | 246 | 0.9 | 0.9 | 0.00 | 0.00 | 0.00 | 43 | 1019.7 |
| 20260508023814 | 54 | 283 | 1.7 | 1.7 | 0.00 | 0.00 | 0.00 | 43 | 1019.6 |
| 20260508023311 | 54 | 271 | 0.9 | 0.9 | 0.00 | 0.00 | 0.00 | 42 | 1019.6 |
| 20260508022807 | 55 | 275 | 1.7 | 2.6 | 0.00 | 0.00 | 0.00 | 42 | 1019.3 |
| 20260508022306 | 55 | 327 | 4.3 | 7.0 | 0.00 | 0.00 | 0.00 | 42 | 1019.7 |
| 20260508021801 | 55 | 259 | 3.5 | 6.1 | 0.00 | 0.00 | 0.00 | 41 | 1019.3 |
| 20260508021256 | 55 | 319 | 4.3 | 6.1 | 0.00 | 0.00 | 0.00 | 41 | 1019.3 |
| 20260508020752 | 55 | 267 | 1.7 | 1.7 | 0.00 | 0.00 | 0.00 | 40 | 1019.3 |
| 20260508020251 | 56 | 324 | 3.5 | 6.1 | 0.00 | 0.00 | 0.00 | 40 | 1019.2 |
| 20260508015747 | 56 | 298 | 1.7 | 1.7 | 0.00 | 0.00 | 0.00 | 40 | 1019.1 |
| 20260508015244 | 56 | 302 | 1.7 | 1.7 | 0.00 | 0.00 | 0.00 | 40 | 1019.0 |
| 20260508014741 | 56 | 303 | 3.5 | 5.2 | 0.00 | 0.00 | 0.00 | 39 | 1019.1 |
| 20260508014238 | 56 | 324 | 2.6 | 5.2 | 0.00 | 0.00 | 0.00 | 39 | 1019.5 |
| 20260508013734 | 56 | 31 | 6.1 | 7.0 | 0.00 | 0.00 | 0.00 | 39 | 1019.1 |
| 20260508013231 | 57 | 325 | 4.3 | 6.1 | 0.00 | 0.00 | 0.00 | 39 | 1018.8 |
| 20260508012728 | 57 | 324 | 7.8 | 9.6 | 0.00 | 0.00 | 0.00 | 39 | 1018.8 |
| 20260508012225 | 57 | 305 | 2.6 | 4.3 | 0.00 | 0.00 | 0.00 | 39 | 1019.2 |
| 20260508011723 | 57 | 314 | 8.7 | 12.2 | 0.00 | 0.00 | 0.00 | 38 | 1019.1 |
| 20260508011220 | 57 | 14 | 7.0 | 7.8 | 0.00 | 0.00 | 0.00 | 38 | 1019.0 |
| 20260508010717 | 57 | 308 | 9.6 | 11.3 | 0.00 | 0.00 | 0.00 | 38 | 1018.8 |
| 20260508010215 | 57 | 286 | 7.8 | 11.3 | 0.00 | 0.00 | 0.00 | 37 | 1018.8 |
| 20260508005712 | 57 | 286 | 6.1 | 7.8 | 0.00 | 0.00 | 0.00 | 37 | 1018.8 |
| 20260508005208 | 57 | 338 | 7.0 | 9.6 | 0.00 | 0.00 | 0.00 | 37 | 1018.7 |
| 20260508004704 | 58 | 348 | 6.1 | 7.0 | 0.00 | 0.00 | 0.00 | 37 | 1019.0 |
| 20260508004200 | 58 | 282 | 4.3 | 6.1 | 0.00 | 0.00 | 0.00 | 37 | 1019.1 |
| 20260508003657 | 58 | 297 | 6.1 | 7.8 | 0.00 | 0.00 | 0.00 | 37 | 1018.8 |
| 20260508003155 | 58 | 314 | 1.7 | 1.7 | 0.00 | 0.00 | 0.00 | 38 | 1018.7 |
| 20260508002651 | 57 | 346 | 7.0 | 7.8 | 0.00 | 0.00 | 0.00 | 37 | 1018.6 |
| 20260508002149 | 57 | 330 | 8.7 | 9.6 | 0.00 | 0.00 | 0.00 | 36 | 1019.1 |
| 20260508001644 | 57 | 255 | 4.3 | 6.1 | 0.00 | 0.00 | 0.00 | 37 | 1018.8 |
| 20260508001140 | 57 | 359 | 2.6 | 5.2 | 0.00 | 0.00 | 0.00 | 37 | 1018.8 |
| 20260508000636 | 58 | 317 | 7.0 | 8.7 | 0.00 | 0.00 | 0.00 | 36 | 1019.0 |
| 20260508000134 | 58 | 349 | 4.3 | 6.1 | 0.00 | 0.00 | 0.00 | 36 | 1018.8 |
| 20260507235630 | 59 | 287 | 6.1 | 8.7 | 0.00 | 0.00 | 0.00 | 36 | 1018.6 |
| 20260507235128 | 59 | 24 | 3.5 | 5.2 | 0.00 | 0.00 | 0.00 | 35 | 1018.7 |
| 20260507234624 | 59 | 340 | 3.5 | 4.3 | 0.00 | 0.00 | 0.00 | 36 | 1018.5 |
| 20260507234121 | 59 | 343 | 4.3 | 5.2 | 0.00 | 0.00 | 0.00 | 36 | 1018.6 |
| 20260507233618 | 59 | 301 | 4.3 | 5.2 | 0.00 | 0.00 | 0.00 | 36 | 1018.7 |
| 20260507233116 | 59 | 337 | 6.1 | 8.7 | 0.00 | 0.00 | 0.00 | 34 | 1018.7 |
| 20260507232613 | 60 | 350 | 8.7 | 9.6 | 0.00 | 0.00 | 0.00 | 33 | 1018.6 |
| 20260507232110 | 60 | 2 | 7.0 | 7.8 | 0.00 | 0.00 | 0.00 | 34 | 1018.3 |
| 20260507231606 | 61 | 357 | 4.3 | 5.2 | 0.00 | 0.00 | 0.00 | 34 | 1018.5 |
| 20260507231103 | 61 | 25 | 7.0 | 8.7 | 0.00 | 0.00 | 0.00 | 33 | 1019.0 |
| 20260507230559 | 62 | 352 | 9.6 | 12.2 | 0.00 | 0.00 | 0.00 | 32 | 1018.6 |
| 20260507230056 | 61 | 318 | 5.2 | 7.0 | 0.00 | 0.00 | 0.00 | 34 | 1018.8 |
| 20260507225551 | 61 | 9 | 7.8 | 11.3 | 0.00 | 0.00 | 0.00 | 33 | 1018.6 |
| 20260507225048 | 61 | 331 | 6.1 | 8.7 | 0.00 | 0.00 | 0.00 | 33 | 1018.6 |
| 20260507224543 | 61 | 306 | 7.0 | 9.6 | 0.00 | 0.00 | 0.00 | 33 | 1018.7 |
| 20260507224040 | 61 | 9 | 7.0 | 9.6 | 0.00 | 0.00 | 0.00 | 33 | 1018.8 |
| 20260507223536 | 60 | 287 | 4.3 | 6.1 | 0.00 | 0.00 | 0.00 | 35 | 1018.7 |
| 20260507223034 | 60 | 305 | 8.7 | 9.6 | 0.00 | 0.00 | 0.00 | 35 | 1018.6 |
| 20260507222531 | 60 | 322 | 5.2 | 6.1 | 0.00 | 0.00 | 0.00 | 35 | 1019.0 |
| 20260507222027 | 62 | 319 | 4.3 | 5.2 | 0.00 | 0.00 | 0.00 | 34 | 1018.8 |
| 20260507221523 | 61 | 300 | 2.6 | 2.6 | 0.00 | 0.00 | 0.00 | 33 | 1019.0 |
| 20260507221020 | 61 | 276 | 4.3 | 6.1 | 0.00 | 0.00 | 0.00 | 31 | 1018.8 |
| 20260507220518 | 61 | 343 | 7.0 | 7.8 | 0.00 | 0.00 | 0.00 | 35 | 1019.1 |
| 20260507220015 | 60 | 293 | 4.3 | 6.1 | 0.00 | 0.00 | 0.00 | 35 | 1019.1 |
| 20260507215511 | 60 | 300 | 7.8 | 11.3 | 0.00 | 0.00 | 0.00 | 34 | 1019.0 |
| 20260507215009 | 62 | 265 | 4.3 | 6.1 | 0.00 | 0.00 | 0.00 | 33 | 1019.3 |
| 20260507214506 | 61 | 340 | 5.2 | 7.8 | 0.00 | 0.00 | 0.00 | 34 | 1019.0 |
| 20260507214001 | 62 | 298 | 6.1 | 7.0 | 0.00 | 0.00 | 0.00 | 33 | 1019.2 |
| 20260507213458 | 62 | 356 | 4.3 | 6.1 | 0.00 | 0.00 | 0.00 | 33 | 1019.3 |
| 20260507212955 | 62 | 303 | 7.0 | 7.8 | 0.00 | 0.00 | 0.00 | 33 | 1019.6 |
| 20260507212451 | 62 | 347 | 4.3 | 7.0 | 0.00 | 0.00 | 0.00 | 35 | 1019.3 |
| 20260507211948 | 62 | 5 | 7.8 | 9.6 | 0.00 | 0.00 | 0.00 | 33 | 1019.5 |
| 20260507211444 | 59 | 349 | 4.3 | 6.1 | 0.00 | 0.00 | 0.00 | 35 | 1019.7 |
| 20260507210941 | 59 | 330 | 7.8 | 11.3 | 0.00 | 0.00 | 0.00 | 35 | 1019.8 |
| 20260507210438 | 59 | 59 | 10.4 | 13.0 | 0.00 | 0.00 | 0.00 | 35 | 1019.8 |
| 20260507205935 | 60 | 318 | 4.3 | 7.0 | 0.00 | 0.00 | 0.00 | 35 | 1020.0 |
| 20260507205432 | 60 | 324 | 6.1 | 8.7 | 0.00 | 0.00 | 0.00 | 35 | 1020.0 |
| 20260507204928 | 61 | 330 | 4.3 | 5.2 | 0.00 | 0.00 | 0.00 | 33 | 1019.8 |
| 20260507204424 | 62 | 149 | 5.2 | 7.0 | 0.00 | 0.00 | 0.00 | 34 | 1020.0 |
| 20260507203922 | 61 | 326 | 5.2 | 8.7 | 0.00 | 0.00 | 0.00 | 34 | 1020.0 |
| 20260507203420 | 62 | 329 | 7.0 | 8.7 | 0.00 | 0.00 | 0.00 | 35 | 1020.3 |
| 20260507202916 | 62 | 45 | 2.6 | 2.6 | 0.00 | 0.00 | 0.00 | 33 | 1020.1 |
| 20260507202413 | 61 | 317 | 7.0 | 11.3 | 0.00 | 0.00 | 0.00 | 34 | 1020.0 |
| 20260507201908 | 61 | 321 | 9.6 | 12.2 | 0.00 | 0.00 | 0.00 | 35 | 1020.3 |
| 20260507201404 | 62 | 336 | 7.0 | 7.8 | 0.00 | 0.00 | 0.00 | 34 | 1020.4 |
| 20260507200901 | 62 | 5 | 2.6 | 4.3 | 0.00 | 0.00 | 0.00 | 36 | 1020.6 |
| 20260507200356 | 62 | 234 | 5.2 | 7.0 | 0.00 | 0.00 | 0.00 | 36 | 1020.6 |
| 20260507195853 | 60 | 41 | 3.5 | 4.3 | 0.00 | 0.00 | 0.00 | 36 | 1020.3 |
| 20260507195350 | 60 | 335 | 7.8 | 8.7 | 0.00 | 0.00 | 0.00 | 37 | 1020.6 |
| 20260507194848 | 60 | 50 | 1.7 | 2.6 | 0.00 | 0.00 | 0.00 | 35 | 1020.6 |
| 20260507194344 | 60 | 294 | 3.5 | 5.2 | 0.00 | 0.00 | 0.00 | 36 | 1020.6 |
| 20260507193840 | 59 | 39 | 5.2 | 7.8 | 0.00 | 0.00 | 0.00 | 36 | 1020.6 |
| 20260507193338 | 59 | 11 | 7.0 | 9.6 | 0.00 | 0.00 | 0.00 | 35 | 1020.7 |
| 20260507192833 | 58 | 8 | 7.8 | 9.6 | 0.00 | 0.00 | 0.00 | 34 | 1020.8 |
| 20260507192330 | 58 | 308 | 9.6 | 12.2 | 0.00 | 0.00 | 0.00 | 37 | 1021.2 |
| 20260507191826 | 58 | 22 | 5.2 | 7.8 | 0.00 | 0.00 | 0.00 | 36 | 1021.3 |
| 20260507191322 | 57 | 350 | 9.6 | 12.2 | 0.00 | 0.00 | 0.00 | 36 | 1021.1 |
| 20260507190820 | 57 | 306 | 3.5 | 6.1 | 0.00 | 0.00 | 0.00 | 37 | 1021.3 |
| 20260507190318 | 58 | 29 | 8.7 | 11.3 | 0.00 | 0.00 | 0.00 | 36 | 1021.4 |
| 20260507185817 | 58 | 294 | 12.2 | 17.4 | 0.00 | 0.00 | 0.00 | 36 | 1021.4 |
| 20260507185313 | 55 | 239 | 0.0 | 0.9 | 0.00 | 0.00 | 0.00 | 37 | 1021.3 |
| 20260507184810 | 55 | 151 | 0.9 | 1.7 | 0.00 | 0.00 | 0.00 | 40 | 1021.7 |
| 20260507184309 | 54 | 159 | 2.6 | 2.6 | 0.00 | 0.00 | 0.00 | 39 | 1021.9 |
| 20260507183805 | 52 | 158 | 1.7 | 2.6 | 0.00 | 0.00 | 0.00 | 40 | 1021.8 |
| 20260507183302 | 52 | 192 | 2.6 | 2.6 | 0.00 | 0.00 | 0.00 | 41 | 1022.1 |
| 20260507182759 | 51 | 137 | 0.9 | 0.9 | 0.00 | 0.00 | 0.00 | 41 | 1022.1 |
| 20260507182254 | 52 | 145 | 2.6 | 2.6 | 0.00 | 0.00 | 0.00 | 41 | 1022.4 |
| 20260507181751 | 51 | 111 | 3.5 | 4.3 | 0.00 | 0.00 | 0.00 | 41 | 1022.1 |
| 20260507181247 | 51 | 112 | 1.7 | 1.7 | 0.00 | 0.00 | 0.00 | 41 | 1022.3 |
| 20260507180744 | 51 | 99 | 2.6 | 4.3 | 0.00 | 0.00 | 0.00 | 42 | 1022.4 |
| 20260507180241 | 52 | 100 | 2.6 | 2.6 | 0.00 | 0.00 | 0.00 | 40 | 1022.7 |
| 20260507175736 | 52 | 65 | 2.6 | 2.6 | 0.00 | 0.00 | 0.00 | 41 | 1022.7 |
| 20260507175234 | 53 | 29 | 4.3 | 5.2 | 0.00 | 0.00 | 0.00 | 41 | 1022.8 |
| 20260507174731 | 54 | 306 | 2.6 | 2.6 | 0.00 | 0.00 | 0.00 | 39 | 1022.8 |
| 20260507174229 | 53 | 91 | 1.7 | 1.7 | 0.00 | 0.00 | 0.00 | 42 | 1022.8 |
| 20260507173726 | 50 | 122 | 1.7 | 1.7 | 0.00 | 0.00 | 0.00 | 42 | 1023.1 |
| 20260507173223 | 50 | 81 | 0.9 | 1.7 | 0.00 | 0.00 | 0.00 | 41 | 1022.7 |
| 20260507172720 | 50 | 245 | 0.9 | 0.9 | 0.00 | 0.00 | 0.00 | 41 | 1023.1 |
| 20260507172217 | 50 | 201 | 0.9 | 0.9 | 0.00 | 0.00 | 0.00 | 41 | 1023.2 |
| 20260507171716 | 49 | 318 | 1.7 | 1.7 | 0.00 | 0.00 | 0.00 | 43 | 1023.2 |
| 20260507171214 | 49 | 210 | 1.7 | 2.6 | 0.00 | 0.00 | 0.00 | 41 | 1023.2 |
| 20260507170711 | 49 | 77 | 0.0 | 0.9 | 0.00 | 0.00 | 0.00 | 42 | 1023.2 |
| 20260507170208 | 50 | 15 | 3.5 | 4.3 | 0.00 | 0.00 | 0.00 | 42 | 1023.3 |
| 20260507165704 | 50 | 324 | 3.5 | 4.3 | 0.00 | 0.00 | 0.00 | 42 | 1023.2 |
| 20260507165200 | 49 | 322 | 1.7 | 1.7 | 0.00 | 0.00 | 0.00 | 43 | 1023.2 |
| 20260507164656 | 49 | 296 | 2.6 | 2.6 | 0.00 | 0.00 | 0.00 | 42 | 1023.4 |
| 20260507164153 | 48 | 9 | 1.7 | 1.7 | 0.00 | 0.00 | 0.00 | 42 | 1023.2 |
| 20260507163650 | 48 | 204 | 1.7 | 1.7 | 0.00 | 0.00 | 0.00 | 40 | 1023.3 |
| 20260507163148 | 48 | 232 | 0.9 | 0.9 | 0.00 | 0.00 | 0.00 | 42 | 1023.7 |
| 20260507162644 | 48 | 181 | 0.0 | 0.9 | 0.00 | 0.00 | 0.00 | 42 | 1023.7 |
| 20260507162140 | 48 | 35 | 1.7 | 1.7 | 0.00 | 0.00 | 0.00 | 42 | 1023.8 |
| 20260507161636 | 48 | 63 | 0.9 | 1.7 | 0.00 | 0.00 | 0.00 | 41 | 1023.7 |
| 20260507161133 | 46 | 63 | 1.7 | 1.7 | 0.00 | 0.00 | 0.00 | 40 | 1023.5 |
| 20260507160630 | 47 | 167 | 2.6 | 4.3 | 0.00 | 0.00 | 0.00 | 41 | 1023.5 |
| 20260507160126 | 46 | 187 | 0.9 | 1.7 | 0.00 | 0.00 | 0.00 | 43 | 1023.9 |
| 20260507155622 | 45 | 174 | 0.0 | 0.0 | 0.00 | 0.00 | 0.00 | 45 | 1023.8 |
| 20260507155119 | 43 | 124 | 0.9 | 0.9 | 0.00 | 0.00 | 0.00 | 44 | 1024.2 |
| 20260507154615 | 43 | 236 | 1.7 | 1.7 | 0.00 | 0.00 | 0.00 | 45 | 1024.4 |
| 20260507154113 | 44 | 136 | 1.7 | 1.7 | 0.00 | 0.00 | 0.00 | 45 | 1024.4 |
| 20260507153609 | 42 | 133 | 1.7 | 2.6 | 0.00 | 0.00 | 0.00 | 48 | 1024.5 |
| 20260507153106 | 42 | 206 | 0.9 | 0.9 | 0.00 | 0.00 | 0.00 | 49 | 1024.9 |
| 20260507152602 | 41 | 109 | 1.7 | 1.7 | 0.00 | 0.00 | 0.00 | 50 | 1025.2 |
| 20260507152058 | 40 | 232 | 0.9 | 0.9 | 0.00 | 0.00 | 0.00 | 52 | 1025.2 |
| 20260507151554 | 40 | 91 | 0.9 | 1.7 | 0.00 | 0.00 | 0.00 | 51 | 1025.3 |
| 20260507151051 | 40 | 170 | 1.7 | 2.6 | 0.00 | 0.00 | 0.00 | 52 | 1025.0 |
| 20260507150549 | 38 | 165 | 0.9 | 0.9 | 0.00 | 0.00 | 0.00 | 53 | 1025.3 |
| 20260507150045 | 39 | 119 | 3.5 | 4.3 | 0.00 | 0.00 | 0.00 | 53 | 1025.4 |
| 20260507145540 | 39 | 141 | 1.7 | 1.7 | 0.00 | 0.00 | 0.00 | 52 | 1025.7 |
| 20260507145038 | 39 | 117 | 1.7 | 1.7 | 0.00 | 0.00 | 0.00 | 54 | 1025.8 |
| 20260507144534 | 38 | 88 | 1.7 | 1.7 | 0.00 | 0.00 | 0.00 | 53 | 1025.8 |
| 20260507144032 | 37 | 113 | 0.9 | 0.9 | 0.00 | 0.00 | 0.00 | 55 | 1025.8 |
| 20260507143529 | 36 | 146 | 0.0 | 0.9 | 0.00 | 0.00 | 0.00 | 57 | 1026.0 |
| 20260507143027 | 36 | 150 | 0.9 | 0.9 | 0.00 | 0.00 | 0.00 | 56 | 1025.9 |
| 20260507142522 | 36 | 84 | 0.9 | 1.7 | 0.00 | 0.00 | 0.00 | 55 | 1025.9 |
| 20260507142019 | 37 | 171 | 0.9 | 0.9 | 0.00 | 0.00 | 0.00 | 55 | 1025.7 |
| 20260507141515 | 37 | 163 | 0.9 | 0.9 | 0.00 | 0.00 | 0.00 | 55 | 1025.9 |
| 20260507141012 | 37 | 59 | 1.7 | 1.7 | 0.00 | 0.00 | 0.00 | 57 | 1025.8 |
| 20260507140509 | 38 | 178 | 0.0 | 0.0 | 0.00 | 0.00 | 0.00 | 52 | 1025.9 |
| 20260507140007 | 38 | 173 | 0.0 | 0.9 | 0.00 | 0.00 | 0.00 | 54 | 1025.9 |
| 20260507135503 | 37 | 163 | 0.0 | 0.0 | 0.00 | 0.00 | 0.00 | 59 | 1026.2 |
| 20260507135000 | 33 | 173 | 0.0 | 0.0 | 0.00 | 0.00 | 0.00 | 64 | 1026.2 |
| 20260507134456 | 33 | 69 | 0.9 | 1.7 | 0.00 | 0.00 | 0.00 | 67 | 1026.0 |
| 20260507133952 | 33 | 147 | 0.9 | 0.9 | 0.00 | 0.00 | 0.00 | 66 | 1026.0 |
| 20260507133448 | 33 | 164 | 0.0 | 0.0 | 0.00 | 0.00 | 0.00 | 67 | 1026.0 |
| 20260507132947 | 32 | 161 | 0.0 | 0.0 | 0.00 | 0.00 | 0.00 | 70 | 1025.9 |
| 20260507132443 | 32 | 131 | 0.9 | 0.9 | 0.00 | 0.00 | 0.00 | 69 | 1025.9 |
| 20260507131939 | 32 | 154 | 0.9 | 0.9 | 0.00 | 0.00 | 0.00 | 71 | 1026.2 |
| 20260507131436 | 31 | 160 | 0.0 | 0.0 | 0.00 | 0.00 | 0.00 | 75 | 1025.8 |
| 20260507130933 | 30 | 158 | 0.0 | 0.9 | 0.00 | 0.00 | 0.00 | 76 | 1025.9 |
| 20260507130431 | 28 | 184 | 0.9 | 0.9 | 0.00 | 0.00 | 0.00 | 80 | 1026.0 |
| 20260507125929 | 28 | 156 | 0.0 | 0.0 | 0.00 | 0.00 | 0.00 | 81 | 1025.9 |
| 20260507125427 | 27 | 194 | 0.9 | 0.9 | 0.00 | 0.00 | 0.00 | 82 | 1026.0 |
| 20260507124924 | 26 | 220 | 0.0 | 0.9 | 0.00 | 0.00 | 0.00 | 84 | 1025.8 |
| 20260507124420 | 25 | 193 | 0.0 | 0.0 | 0.00 | 0.00 | 0.00 | 85 | 1025.8 |
| 20260507123919 | 25 | 203 | 0.0 | 0.0 | 0.00 | 0.00 | 0.00 | 86 | 1025.5 |
| 20260507123418 | 24 | 190 | 0.0 | 0.0 | 0.00 | 0.00 | 0.00 | 87 | 1025.5 |
| 20260507122912 | 23 | 207 | 0.0 | 0.0 | 0.00 | 0.00 | 0.00 | 87 | 1025.5 |
| 20260507122407 | 23 | 219 | 0.9 | 0.9 | 0.00 | 0.00 | 0.00 | 88 | 1025.5 |
| 20260507121904 | 23 | 194 | 0.0 | 0.0 | 0.00 | 0.00 | 0.00 | 88 | 1025.8 |
| 20260507121359 | 24 | 216 | 0.9 | 0.9 | 0.00 | 0.00 | 0.00 | 88 | 1025.5 |
| 20260507120856 | 23 | 204 | 0.0 | 0.0 | 0.00 | 0.00 | 0.00 | 87 | 1025.7 |
| 20260507120352 | 23 | 229 | 0.9 | 0.9 | 0.00 | 0.00 | 0.00 | 88 | 1025.7 |
| 20260507115848 | 23 | 236 | 0.9 | 0.9 | 0.00 | 0.00 | 0.00 | 87 | 1025.8 |
| 20260507115344 | 23 | 227 | 0.9 | 0.9 | 0.00 | 0.00 | 0.00 | 87 | 1025.8 |
| 20260507114840 | 23 | 244 | 0.9 | 1.7 | 0.00 | 0.00 | 0.00 | 86 | 1025.9 |
| 20260507114337 | 23 | 210 | 0.0 | 0.0 | 0.00 | 0.00 | 0.00 | 87 | 1025.7 |
| 20260507113835 | 23 | 206 | 0.0 | 0.0 | 0.00 | 0.00 | 0.00 | 88 | 1025.7 |
| 20260507113332 | 23 | 197 | 0.9 | 0.9 | 0.00 | 0.00 | 0.00 | 88 | 1025.7 |
| 20260507112829 | 23 | 177 | 0.0 | 0.0 | 0.00 | 0.00 | 0.00 | 87 | 1025.8 |
| 20260507112326 | 23 | 199 | 0.0 | 0.0 | 0.00 | 0.00 | 0.00 | 86 | 1025.7 |
| 20260507111824 | 23 | 182 | 0.0 | 0.0 | 0.00 | 0.00 | 0.00 | 86 | 1025.7 |
| 20260507111320 | 23 | 240 | 0.0 | 0.0 | 0.00 | 0.00 | 0.00 | 86 | 1025.7 |
| 20260507110816 | 23 | 194 | 0.0 | 0.0 | 0.00 | 0.00 | 0.00 | 86 | 1025.8 |
| 20260507110313 | 23 | 211 | 0.0 | 0.0 | 0.00 | 0.00 | 0.00 | 86 | 1025.5 |
| 20260507105810 | 23 | 232 | 0.9 | 0.9 | 0.00 | 0.00 | 0.00 | 85 | 1025.7 |
| 20260507105307 | 23 | 191 | 0.0 | 0.0 | 0.00 | 0.00 | 0.00 | 86 | 1025.4 |
| 20260507104804 | 24 | 204 | 0.0 | 0.0 | 0.00 | 0.00 | 0.00 | 86 | 1025.4 |
| 20260507104300 | 24 | 196 | 0.0 | 0.0 | 0.00 | 0.00 | 0.00 | 86 | 1025.5 |
| 20260507103756 | 24 | 188 | 0.0 | 0.0 | 0.00 | 0.00 | 0.00 | 86 | 1025.4 |
| 20260507103252 | 24 | 193 | 0.0 | 0.0 | 0.00 | 0.00 | 0.00 | 86 | 1025.5 |
| 20260507102749 | 24 | 190 | 0.0 | 0.9 | 0.00 | 0.00 | 0.00 | 86 | 1025.7 |
| 20260507102245 | 24 | 258 | 1.7 | 1.7 | 0.00 | 0.00 | 0.00 | 86 | 1025.4 |
| 20260507101742 | 24 | 211 | 0.0 | 0.0 | 0.00 | 0.00 | 0.00 | 86 | 1025.4 |
| 20260507101237 | 24 | 211 | 0.0 | 0.9 | 0.00 | 0.00 | 0.00 | 85 | 1025.5 |
| 20260507100734 | 24 | 211 | 0.0 | 0.0 | 0.00 | 0.00 | 0.00 | 85 | 1025.4 |
| 20260507100233 | 24 | 203 | 0.0 | 0.0 | 0.00 | 0.00 | 0.00 | 86 | 1025.4 |
| 20260507095730 | 24 | 208 | 0.0 | 0.0 | 0.00 | 0.00 | 0.00 | 86 | 1025.5 |
| 20260507095226 | 24 | 202 | 0.0 | 0.0 | 0.00 | 0.00 | 0.00 | 84 | 1025.4 |
| 20260507094723 | 24 | 205 | 0.0 | 0.0 | 0.00 | 0.00 | 0.00 | 84 | 1025.4 |
| 20260507094220 | 24 | 230 | 0.9 | 1.7 | 0.00 | 0.00 | 0.00 | 85 | 1025.7 |
| 20260507093717 | 25 | 189 | 0.0 | 0.0 | 0.00 | 0.00 | 0.00 | 84 | 1025.5 |
| 20260507093216 | 25 | 203 | 0.0 | 0.9 | 0.00 | 0.00 | 0.00 | 84 | 1025.4 |
| 20260507092713 | 25 | 203 | 0.0 | 0.0 | 0.00 | 0.00 | 0.00 | 83 | 1025.7 |
| 20260507092209 | 25 | 216 | 0.9 | 0.9 | 0.00 | 0.00 | 0.00 | 82 | 1025.8 |
| 20260507091705 | 25 | 204 | 0.0 | 0.0 | 0.00 | 0.00 | 0.00 | 82 | 1025.3 |
| 20260507091202 | 26 | 185 | 0.0 | 0.0 | 0.00 | 0.00 | 0.00 | 82 | 1025.4 |
| 20260507090657 | 26 | 192 | 0.0 | 0.0 | 0.00 | 0.00 | 0.00 | 81 | 1025.5 |
| 20260507090155 | 25 | 203 | 0.9 | 0.9 | 0.00 | 0.00 | 0.00 | 82 | 1025.4 |
| 20260507085652 | 25 | 203 | 0.0 | 0.0 | 0.00 | 0.00 | 0.00 | 82 | 1025.4 |
| 20260507085148 | 26 | 217 | 0.0 | 0.0 | 0.00 | 0.00 | 0.00 | 83 | 1025.7 |
| 20260507084646 | 26 | 216 | 0.0 | 0.0 | 0.00 | 0.00 | 0.00 | 82 | 1025.4 |
| 20260507084142 | 26 | 203 | 0.0 | 0.0 | 0.00 | 0.00 | 0.00 | 84 | 1025.4 |
| 20260507083639 | 26 | 184 | 0.0 | 0.0 | 0.00 | 0.00 | 0.00 | 85 | 1025.7 |
| 20260507083136 | 26 | 190 | 0.0 | 0.0 | 0.00 | 0.00 | 0.00 | 85 | 1025.7 |
| 20260507082631 | 26 | 181 | 0.0 | 0.0 | 0.00 | 0.00 | 0.00 | 85 | 1025.5 |
| 20260507082128 | 26 | 149 | 0.9 | 0.9 | 0.00 | 0.00 | 0.00 | 83 | 1025.3 |
| 20260507081625 | 27 | 238 | 0.9 | 1.7 | 0.00 | 0.00 | 0.00 | 81 | 1025.4 |
| 20260507081121 | 27 | 210 | 0.9 | 0.9 | 0.00 | 0.00 | 0.00 | 81 | 1025.5 |
| 20260507080618 | 27 | 189 | 0.0 | 0.0 | 0.00 | 0.00 | 0.00 | 82 | 1025.5 |
| 20260507080115 | 27 | 191 | 0.0 | 0.0 | 0.00 | 0.00 | 0.00 | 81 | 1025.8 |
| 20260507075614 | 28 | 188 | 0.0 | 0.0 | 0.00 | 0.00 | 0.00 | 80 | 1025.7 |